Regional Weather Roundup
Issued by NWS

Home | Current Version | Previous Version | Graphics & Text | Print | Product List | Glossary On
Versions: 1 2 3 4 5 6 7 8 9 10 11 12 13 14 15 16 17 18 19 20 21 22 23 24 25 26 27 28 29 30 31 32 33 34 35 36 37 38 39 40 41 42 43 44 45 46 47 48 49 50
472
ASUS45 KSLC 150710
RWRUT

UTAH REGIONAL WEATHER ROUNDUP
NATIONAL WEATHER SERVICE SALT LAKE CITY UT
1200 AM MST FRI DEC 15 2017

UTZ001>011-023>025-150800-

NORTHERN UTAH

CITY           SKY/WX    TMP DP  RH WIND       PRES   REMARKS
BRIGHAM CITY   CLEAR     23  19  85 CALM      30.43F
HILL AFB       PTCLDY    28  21  77 CALM      30.41S
LOGAN          CLEAR     20  13  74 CALM      30.42F
OGDEN          PTCLDY    24  20  84 S8        30.41S WCI  15
SALT LAKE CITY PTCLDY    28  24  85 SE8       30.43R WCI  20
TOOELE VALLEY  PTCLDY    28  23  80 S10       30.42S WCI  19
WENDOVER       PTCLDY    16  11  80 SW3       30.42S
HEBER CITY       N/A     16  12  86 CALM      30.39S
WEST JORDAN    PTCLDY    26  22  87 S6        30.43R WCI  19

$$

UTZ011>015-024>027-150800-

CENTRAL/NORTHEAST UTAH

CITY           SKY/WX    TMP DP  RH WIND       PRES   REMARKS
PROVO AIRPORT  PTCLDY    18  16  92 CALM      30.45S FOG
MOAB/CANYONLAN PTCLDY    30  14  51 CALM      30.34S
DELTA          PTCLDY    18  14  86 NE3       30.43S
PRICE          PTCLDY    26  13  57 NE10      30.34S WCI  16
ROOSEVELT      CLOUDY    18  12  79 W6        30.39S WCI   9
VERNAL         CLOUDY    18  12  77 CALM      30.36S

$$

UTZ013>016-019>022-027-150800-

SOUTHERN UTAH

CITY           SKY/WX    TMP DP  RH WIND       PRES   REMARKS
BRYCE CANYON   PTCLDY     8   5  87 CALM      30.39S
CEDAR CITY     PTCLDY    20  16  84 S5        30.39F WCI  13
MILFORD        CLEAR     15  11  83 S6        30.42F WCI   6
ST GEORGE      MOSUNNY   41  19  41 CALM      30.37R
HANKSVILLE     PTCLDY    25   9  50 CALM      30.39S
BLANDING         N/A     31   7  35 N6        30.40R WCI  26

$$

REGIONAL REPORTS     COLORADO/ARIZONA

CITY           SKY/WX    TMP DP  RH WIND       PRES   REMARKS
CRAIG, CO      CLOUDY     3  -2  79 CALM      30.36F
GRAND JUNCTION CLOUDY    22  11  62 E5        30.37S WCI  16
RIFLE, CO      CLOUDY    18   8  65 CALM      30.41R
MONTROSE, CO   CLOUDY    21  15  78 S9        30.40S WCI  11
CORTEZ, CO     CLOUDY    18   5  57 NE7       30.30R WCI   9
COLORADO CITY    N/A     19  10  68 CALM      30.39R HAZE
PAGE, AZ       PTCLDY    36  11  35 SW5       30.34R WCI  32
GRAND CANYON   PTCLDY    36   0  21 NE13      30.34S WCI  27
KINGMAN, AZ    CLEAR     36  14  40 E6        30.28R WCI  31
FLAGSTAFF, AZ  CLEAR     33   2  26 NE14      30.31S WCI  23

$$

REGIONAL REPORTS    NEVADA/IDAHO/WYOMING

CITY           SKY/WX    TMP DP  RH WIND       PRES   REMARKS
LAS VEGAS, NV  PTCLDY    53  20  27 SE6       30.30R
ELY, NY        PTCLDY    13   6  74 S12       30.40F WCI  -1
ELKO, NV       PTCLDY    18  15  88 NE6       30.38R WCI  10
POCATELLO, ID  CLOUDY    22  20  92 NE8       30.41S FOG     WCI  12
BURLEY, ID     FOG       22  18  85 E6        30.38F VSB 1/4 WCI  14
FORT BRIDGER,  PTSUNNY   32   3  29 W17       30.32S WCI  21
EVANSTON, WY   CLOUDY    22  16  78 SW13      30.34R WCI  10
ROCK SPRINGS,  CLOUDY    25  13  60 W12       30.26F WCI  14

$$




USA.gov is the U.S. government's official web portal to all federal, state and local government web resources and services.